Home   Weather   Nordhorn   Past weeks

Flag for Germany Past Weather in Nordhorn, Lower Saxony, Germany — Yesterday and Last 2 Weeks

44 °F


Feels Like: 44 °F
Forecast: 40 / 50 °F
Wind: 2 mph from Northeast

Location: Twenthe

Current Time: Oct 22, 2016 at 7:21:18 AM

Latest Report: Oct 22, 2016 at 6:00 AM

Visibility: 5 mi

Pressure: 29.92 "Hg

Humidity: 93%

Dew Point: 43 °F

Location of NordhornLocation

Past Weather in Nordhorn — Graph


Nordhorn Temperature Yesterday

Maximum temperature yesterday: 49 °F (at 2:00 PM)
Minimum temperature yesterday: 42 °F (at 1:00 AM)
Average temperature yesterday: 46 °F

High & Low Weather Summary for the Past Weeks

High66 °F (Oct 16, 3:00 PM)100% (Oct 8, 9:00 PM)30.32 "Hg (Oct 8, 9:00 PM)
Low31 °F (Oct 9, 8:00 AM)54% (Oct 16, 4:00 PM)29.68 "Hg (Oct 15, 5:00 AM)
Average47 °F90%30.08 "Hg
* Reported Oct 7 6:00 AM — Oct 22 6:00 AM, Nordhorn, Weather by CustomWeather, © 2016

Note: Actual official high and low records may vary slightly from our data, if they occured in-between our weather recording intervals... More about our weather records


Nordhorn Weather History for the Previous 24 Hours

Scroll right to see more
Time TempWeatherWind HumidityBarometerVisibility
6:00 AM
Sat, Oct 22
44 °FFog.2 mph93%29.92 "Hg5 mi
5:00 AM45 °FFog.3 mph95%29.92 "Hg3 mi
4:00 AM46 °FFog.3 mph95%29.91 "Hg5 mi
3:00 AM47 °FLow clouds.2 mph99%29.91 "Hg4 mi
2:00 AM47 °FLow clouds.1 mph99%29.91 "Hg3 mi
1:00 AM47 °FLow clouds.2 mph99%29.91 "Hg4 mi
12:00 AM47 °FFog.2 mph99%29.91 "Hg5 mi
11:00 PM
Fri, Oct 21
47 °FLow clouds.2 mph98%29.92 "Hg6 mi
10:00 PM47 °FLow clouds.2 mph99%29.92 "Hg6 mi
9:00 PM47 °FLow clouds.3 mph97%29.93 "Hg7 mi
8:00 PM47 °FLow clouds.3 mph97%29.93 "Hg10 mi
7:00 PM47 °FLow clouds.1 mph98%29.93 "Hg10 mi
6:00 PM47 °FLight rain. Low clouds.2 mph97%29.93 "Hg12 mi
5:00 PM48 °FRain. Low clouds.3 mph95%29.93 "Hg4 mi
4:00 PM47 °FRain. Low clouds.2 mph99%29.94 "Hg1 mi
3:00 PM48 °FDrizzle. Low clouds.5 mph94%29.95 "Hg3 mi
2:00 PM49 °FFog.5 mph91%29.97 "Hg4 mi
1:00 PM47 °FFog.5 mph93%29.98 "Hg3 mi
12:00 PM46 °FFog.3 mph93%29.99 "Hg3 mi
11:00 AM44 °FFog.2 mph97%29.99 "Hg2 mi
10:00 AM43 °FLow clouds.2 mph100%30.00 "Hg1 mi
9:00 AM42 °FDense fog.2 mph100%30.01 "Hg0 mi
8:00 AM42 °FFog.1 mph98%30.00 "Hg1 mi
7:00 AM42 °FLow clouds.2 mph100%29.99 "Hg1 mi
Weather by CustomWeather, © 2016

See weather overviewHow to use our weather pages